Pineville, WV

12:35 AM EDT on June 25, 2017 (GMT -0400)
Pineville

Weather History for KI16 - December, 2012

Change the Weather History Date:

Friday, December 14, 2012

  Actual Average (KBKW) Record (KBKW)
Temperature  
Mean Temperature 39 °F -  
Max Temperature 54 °F 44 °F 68 °F (1984)
Min Temperature 24 °F 27 °F -11 °F (1898)
Degree Days  
Heating Degree Days 26    
Moisture  
Dew Point 30 °F    
Average Humidity 87    
Maximum Humidity 100    
Minimum Humidity 35    
Precipitation  
Precipitation 0.00 in - - ()
Sea Level Pressure  
Sea Level Pressure 30.34 in    
Wind  
Wind Speed - (North)    
Max Wind Speed -    
Max Gust Speed -    
Visibility 10 miles    
Events      
Averages and records for this station are not official NWS values.
T = Trace of Precipitation, MM = Missing Value Source: NWS Daily Summary

Daily Weather History Graph

Daily Weather History Graph

Search for Another Location

Airport or City:

Trip Planner

Search our weather history database for the weather conditions in past years. The results will help you decide how hot, cold, wet, or windy it might be!

Date:

Astronomy

Dec. 14, 2012 Rise Set
Actual Time 7:33 AM EST 5:08 PM EST
Civil Twilight 7:04 AM EST 5:38 PM EST
Nautical Twilight 6:31 AM EST 6:10 PM EST
Astronomical Twilight 5:59 AM EST 6:42 PM EST
Moon 8:38 AM EST (12/14) 6:58 PM EST (12/14)
Length of Visible Light 10h 33m
Length of Day
9h 35m
Waxing Crescent, 3% of the Moon is Illuminated
Dec 14
Waxing Crescent
Dec 20
First Quarter
Dec 28
Full
Jan 4
Last Quarter
Jan 11
New

Hourly Weather History & Observations

Time (EST) Temp. Dew Point Humidity Pressure Visibility Wind Dir Wind Speed Gust Speed Precip Events Conditions
12:15 AM 28.4 °F 28.4 °F 100% 30.35 in 10.0 mi North - - N/A   Clear
12:35 AM 28.0 °F 27.7 °F 99% 30.35 in 10.0 mi North - - N/A   Clear
12:55 AM 27.9 °F 27.5 °F 99% 30.35 in 10.0 mi North - - N/A   Clear
1:15 AM 27.5 °F 27.3 °F 99% 30.35 in 10.0 mi North - - N/A   Clear
1:35 AM 27.5 °F 27.3 °F 99% 30.35 in 10.0 mi North - - N/A   Clear
1:55 AM 27.3 °F 27.1 °F 99% 30.35 in 10.0 mi North - - N/A   Clear
2:15 AM 27.1 °F 27.0 °F 99% 30.35 in 10.0 mi North - - N/A   Clear
2:35 AM 27.0 °F 26.6 °F 99% 30.35 in 10.0 mi North - - N/A   Clear
2:55 AM 26.6 °F 26.4 °F 99% 30.36 in 10.0 mi North - - N/A   Clear
3:15 AM 27.0 °F 26.6 °F 99% 30.36 in 10.0 mi North - - N/A   Clear
3:35 AM 26.4 °F 25.7 °F 97% 30.36 in 10.0 mi North - - N/A   Clear
3:55 AM 26.1 °F 25.7 °F 99% 30.36 in 10.0 mi North - - N/A   Clear
4:15 AM 25.7 °F 25.5 °F 99% 30.36 in 10.0 mi North - - N/A   Clear
4:35 AM 25.7 °F 25.5 °F 99% 30.37 in 10.0 mi North - - N/A   Clear
4:55 AM 25.5 °F 25.3 °F 99% 30.37 in 10.0 mi North - - N/A   Clear
5:35 AM 25.7 °F 25.5 °F 99% 30.39 in 10.0 mi North - - N/A   Clear
6:15 AM 25.0 °F 24.8 °F 99% 30.40 in 10.0 mi North - - N/A   Clear
6:35 AM 24.8 °F 24.8 °F 100% 30.40 in 10.0 mi North - - N/A   Clear
7:15 AM 25.2 °F 25.2 °F 100% 30.39 in 10.0 mi North - - N/A   Clear
7:35 AM 25.3 °F 25.3 °F 100% 30.39 in 10.0 mi North - - N/A   Clear
7:55 AM 25.0 °F 25.0 °F 100% 30.39 in 10.0 mi North - - N/A   Clear
8:15 AM 25.2 °F 25.2 °F 100% 30.40 in 10.0 mi North - - N/A   Clear
8:35 AM 26.8 °F 26.8 °F 100% 30.40 in 10.0 mi North - - N/A   Clear
8:55 AM 28.2 °F 28.2 °F 100% 30.40 in 10.0 mi North - - N/A   Clear
9:15 AM 30.2 °F 30.2 °F 100% 30.41 in 10.0 mi North - - N/A   Clear
9:35 AM 32.0 °F 32.0 °F 100% 30.41 in 10.0 mi North - - N/A   Clear
9:55 AM 33.6 °F 32.7 °F 96% 30.41 in 10.0 mi North - - N/A   Clear
10:15 AM 35.8 °F 34.3 °F 94% 30.40 in 10.0 mi North - - N/A   Clear
10:35 AM 37.6 °F 36.0 °F 94% 30.40 in 10.0 mi North - - N/A   Clear
10:55 AM 40.1 °F 37.0 °F 89% 30.40 in 10.0 mi North - - N/A   Clear
11:15 AM 42.8 °F 37.4 °F 81% 30.39 in 10.0 mi North - - N/A   Clear
11:35 AM 45.7 °F 39.2 °F 78% 30.38 in 10.0 mi North - - N/A   Clear
11:55 AM 48.2 °F 37.9 °F 68% 30.37 in 10.0 mi North - - N/A   Clear
12:15 PM 51.1 °F 34.9 °F 54% 30.36 in 10.0 mi North - - N/A   Clear
12:35 PM 51.3 °F 35.6 °F 55% 30.35 in 10.0 mi North - - N/A   Clear
12:55 PM 52.3 °F 33.6 °F 49% 30.35 in 10.0 mi North - - N/A   Clear
1:15 PM 52.5 °F 33.3 °F 48% 30.34 in 10.0 mi North - - N/A   Clear
1:35 PM 53.6 °F 29.7 °F 40% 30.33 in 10.0 mi North - - N/A   Clear
1:55 PM 53.6 °F 27.1 °F 36% 30.32 in 10.0 mi North - - N/A   Clear
2:15 PM 54.0 °F 26.8 °F 35% 30.30 in 10.0 mi North - - N/A   Clear
2:55 PM 50.5 °F 30.9 °F 47% 30.29 in 10.0 mi North - - N/A   Clear
3:15 PM 46.8 °F 31.3 °F 55% 30.28 in 10.0 mi North - - N/A   Clear
3:35 PM 44.8 °F 31.6 °F 60% 30.28 in 10.0 mi North - - N/A   Clear
3:55 PM 42.3 °F 30.9 °F 64% 30.28 in 10.0 mi North - - N/A   Clear
4:35 PM 40.3 °F 32.0 °F 72% 30.28 in 10.0 mi North - - N/A   Clear
4:55 PM 39.2 °F 32.2 °F 76% 30.28 in 10.0 mi North - - N/A   Clear
5:15 PM 37.8 °F 32.0 °F 80% 30.28 in 10.0 mi North - - N/A   Clear
5:35 PM 35.8 °F 32.0 °F 86% 30.28 in 10.0 mi North - - N/A   Clear
6:15 PM 33.8 °F 31.3 °F 90% 30.28 in 10.0 mi North - - N/A   Clear
6:35 PM 33.1 °F 30.9 °F 92% 30.28 in 10.0 mi North - - N/A   Clear
6:55 PM 32.9 °F 30.7 °F 92% 30.29 in 10.0 mi North - - N/A   Clear
7:15 PM 32.4 °F 30.6 °F 93% 30.29 in 10.0 mi North - - N/A   Clear
7:35 PM 32.0 °F 30.4 °F 94% 30.30 in 10.0 mi North - - N/A   Clear
7:55 PM 32.0 °F 30.2 °F 93% 30.29 in 10.0 mi North - - N/A   Clear
8:15 PM 32.0 °F 30.4 °F 94% 30.29 in 10.0 mi North - - N/A   Clear
8:35 PM 32.0 °F 30.2 °F 93% 30.30 in 10.0 mi North - - N/A   Clear
9:15 PM 32.0 °F 30.4 °F 94% 30.29 in 10.0 mi North - - N/A   Clear
9:35 PM 32.0 °F 30.6 °F 94% 30.28 in 10.0 mi North - - N/A   Clear
9:55 PM 31.8 °F 30.7 °F 96% 30.28 in 10.0 mi North - - N/A   Clear
10:15 PM 32.0 °F 30.9 °F 96% 30.28 in 10.0 mi North - - N/A   Clear
10:55 PM 33.1 °F 31.1 °F 92% 30.26 in 10.0 mi North - - N/A   Clear
11:15 PM 33.1 °F 31.8 °F 95% 30.26 in 10.0 mi North - - N/A   Clear
11:35 PM 32.9 °F 31.6 °F 95% 30.26 in 10.0 mi North - - N/A   Clear
11:55 PM 32.9 °F 31.8 °F 96% 30.25 in 10.0 mi North - - N/A   Clear